Overview Statistics Trail Chart Weather Telemetry Raw packets
 

This is the latest recevied weather packets stored in our database for station/object GBTWP-2. If no packets are shown the sender has not sent any weather packets the latest 10 day(s).

<< 59 60 61 62 63 64 65 >>
Time Temp. Humidity Pressure Rain* Wind** Luminosity Snow
1788273720 27.22° C 78% 1017.9 hPa 0 mm - 413 W/m² -
1788273421 26.67° C 79% 1017.8 hPa 0 mm - 308 W/m² -
1788273120 27.22° C 78% 1017.9 hPa 0 mm - 169 W/m² -
1788272820 27.78° C 77% 1018 hPa 0 mm - 171 W/m² -
1788272520 27.22° C 78% 1018 hPa 0 mm - 412 W/m² -
1788272220 26.67° C 79% 1018.1 hPa 0 mm - 366 W/m² -
1788271920 26.67° C 79% 1018 hPa 0 mm - 340 W/m² -
1788271621 26.67° C 79% 1018.1 hPa 0 mm - 328 W/m² -
1788271320 26.67° C 79% 1017.9 hPa 0 mm - 316 W/m² -
1788271020 26.11° C 80% 1017.7 hPa 0 mm - 306 W/m² -
1788270720 26.11° C 80% 1018 hPa 0 mm - 279 W/m² -
1788270420 26.11° C 81% 1017.7 hPa 0 mm - 198 W/m² -
1788270120 25.56° C 81% 1017.9 hPa 0 mm - 344 W/m² -
1788269825 25.56° C 81% 1018 hPa 0 mm - 273 W/m² -
1788269520 25.56° C 81% 1018 hPa 0 mm - 233 W/m² -
1788269220 25.56° C 81% 1018.3 hPa 0 mm - 98 W/m² -
1788268920 25.56° C 81% 1018.3 hPa 0 mm - 114 W/m² -
1788268620 25° C 82% 1017.9 hPa 0 mm - 227 W/m² -
1788268320 25° C 82% 1018 hPa 0 mm - 213 W/m² -
1788268020 25° C 83% 1018 hPa 0 mm - 75 W/m² -
1788267720 25° C 83% 1017.9 hPa 0 mm - 129 W/m² -
1788267551 25° C 84% 1018.1 hPa 0 mm - 172 W/m² -
1788267348 25° C 84% 1017.9 hPa 0 mm - 174 W/m² -
1788266520 23.89° C 87% 1018 hPa 0 mm - 156 W/m² -
1788266217 23.89° C 87% 1017.9 hPa 0 mm - 84 W/m² -

* Rain latest hour (hover to see other rain measurements)
** Current wind speed in m/s (hover to see current wind gust speed)